Location: *
(45.1961°N, 1.9694°E)
Time: 04:01:35
(UTC+00:00)

Cosmos 1833 Rocket - Pass Details

Date: 25 August 2019
Orbit: 834 x 838 km, 71.0° (Epoch: 13 October)

Event Time Altitude Azimuth Distance (km) Brightness Sun altitude
Rises 21:00:33 0° 217° (SW) 3,376 5.8 -21.9°
Reaches altitude 10° 21:03:02 10° 221° (SW) 2,445 5.1 -22.2°
Maximum altitude 21:08:33 57° 300° (WNW) 979 3.3 -22.9°
Drops below altitude 10° 21:14:06 10° 19° (NNE) 2,458 5.4 -23.6°
Sets 21:16:36 0° 24° (NNE) 3,395 6.1 -23.9°
